Time,TemperatureF,DewpointF,PressureIn,WindDirection,WindDirectionDegrees,WindSpeedMPH,WindSpeedGustMPH,Humidity,HourlyPrecipIn,Conditions,Clouds,dailyrainin,SoftwareType,DateUTC
2013-08-12 00:01:00,63.2,60.0,29.27,WSW,247,1.0,3.0,89,0.00,,,0.00,Rainwise IP-100,2013-08-12 04:01:00,
2013-08-12 00:06:00,63.2,60.0,29.27,SSW,202,2.0,4.0,90,0.00,,,0.00,Rainwise IP-100,2013-08-12 04:06:00,
2013-08-12 00:11:00,63.2,60.0,29.27,SSW,202,2.0,3.0,90,0.00,,,0.00,Rainwise IP-100,2013-08-12 04:11:00,
2013-08-12 00:16:00,63.2,60.0,29.27,SSE,157,2.0,4.0,90,0.00,,,0.00,Rainwise IP-100,2013-08-12 04:16:00,
2013-08-12 00:21:00,63.2,60.0,29.26,SW,225,2.0,4.0,90,0.00,,,0.00,Rainwise IP-100,2013-08-12 04:21:00,
2013-08-12 00:23:00,63.4,60.0,29.26,SW,225,4.0,4.0,90,0.00,,,0.00,Rainwise IP-100,2013-08-12 04:23:00,
2013-08-12 00:28:00,63.4,60.0,29.26,SSW,202,4.0,5.0,90,0.00,,,0.00,Rainwise IP-100,2013-08-12 04:28:00,
2013-08-12 00:33:00,63.4,60.0,29.26,ESE,112,1.0,5.0,90,0.00,,,0.00,Rainwise IP-100,2013-08-12 04:33:00,
2013-08-12 00:38:00,63.3,60.0,29.26,SW,225,2.0,2.0,90,0.00,,,0.00,Rainwise IP-100,2013-08-12 04:38:00,
2013-08-12 00:42:00,63.3,60.0,29.26,East,90,0.0,2.0,91,0.00,,,0.00,Rainwise IP-100,2013-08-12 04:42:00,
2013-08-12 00:47:00,63.1,60.0,29.26,East,90,1.0,2.0,91,0.00,,,0.00,Rainwise IP-100,2013-08-12 04:47:00,
2013-08-12 00:52:00,62.9,60.0,29.27,East,90,0.0,2.0,91,0.00,,,0.00,Rainwise IP-100,2013-08-12 04:52:00,
2013-08-12 00:57:00,62.7,60.0,29.26,East,90,0.0,0.0,91,0.00,,,0.00,Rainwise IP-100,2013-08-12 04:57:00,
2013-08-12 01:02:00,62.5,60.0,29.26,East,90,0.0,0.0,92,0.00,,,0.00,Rainwise IP-100,2013-08-12 05:02:00,
2013-08-12 01:07:00,62.3,60.0,29.26,SE,135,1.0,1.0,93,0.00,,,0.00,Rainwise IP-100,2013-08-12 05:07:00,
2013-08-12 01:12:00,62.1,60.0,29.26,ESE,112,0.0,2.0,93,0.00,,,0.00,Rainwise IP-100,2013-08-12 05:12:00,
2013-08-12 01:17:00,61.9,60.0,29.26,SSE,157,2.0,2.0,94,0.00,,,0.00,Rainwise IP-100,2013-08-12 05:17:00,
2013-08-12 01:22:00,61.8,60.0,29.26,South,180,1.0,3.0,94,0.00,,,0.00,Rainwise IP-100,2013-08-12 05:22:00,
2013-08-12 01:27:00,61.7,60.0,29.26,SSE,157,2.0,2.0,94,0.00,,,0.00,Rainwise IP-100,2013-08-12 05:27:00,
2013-08-12 01:32:00,61.7,60.0,29.26,SE,135,1.0,2.0,95,0.00,,,0.00,Rainwise IP-100,2013-08-12 05:32:00,
2013-08-12 01:37:00,61.6,60.0,29.26,SSE,157,1.0,2.0,95,0.00,,,0.00,Rainwise IP-100,2013-08-12 05:37:00,
2013-08-12 01:42:00,61.6,60.0,29.25,SE,135,2.0,2.0,96,0.00,,,0.00,Rainwise IP-100,2013-08-12 05:42:00,
2013-08-12 01:47:00,61.7,60.0,29.25,SE,135,0.0,2.0,96,0.00,,,0.00,Rainwise IP-100,2013-08-12 05:47:00,
2013-08-12 01:52:00,61.8,60.0,29.25,SE,135,0.0,0.0,96,0.00,,,0.00,Rainwise IP-100,2013-08-12 05:52:00,
2013-08-12 01:57:00,61.7,60.0,29.25,ENE,67,2.0,2.0,96,0.00,,,0.00,Rainwise IP-100,2013-08-12 05:57:00,
2013-08-12 02:02:00,61.7,60.0,29.25,ENE,67,0.0,2.0,96,0.00,,,0.00,Rainwise IP-100,2013-08-12 06:02:00,
2013-08-12 02:07:00,61.6,60.0,29.25,ENE,67,0.0,1.0,97,0.00,,,0.00,Rainwise IP-100,2013-08-12 06:07:00,
2013-08-12 02:12:00,61.4,60.0,29.25,ENE,67,0.0,0.0,97,0.00,,,0.00,Rainwise IP-100,2013-08-12 06:12:00,
2013-08-12 02:17:00,61.4,60.0,29.25,ENE,67,0.0,0.0,97,0.00,,,0.00,Rainwise IP-100,2013-08-12 06:17:00,
2013-08-12 02:22:00,61.5,61.0,29.25,ENE,67,0.0,0.0,98,0.00,,,0.00,Rainwise IP-100,2013-08-12 06:22:00,
2013-08-12 02:27:00,61.4,61.0,29.25,ENE,67,0.0,0.0,98,0.00,,,0.00,Rainwise IP-100,2013-08-12 06:27:00,
2013-08-12 02:32:00,61.4,61.0,29.25,ENE,67,0.0,0.0,98,0.00,,,0.00,Rainwise IP-100,2013-08-12 06:32:00,
2013-08-12 02:37:00,61.3,60.0,29.25,SSE,157,2.0,2.0,97,0.00,,,0.00,Rainwise IP-100,2013-08-12 06:37:00,
2013-08-12 02:42:00,61.3,60.0,29.25,South,180,2.0,2.0,97,0.00,,,0.00,Rainwise IP-100,2013-08-12 06:42:00,
2013-08-12 02:47:00,61.4,60.0,29.25,South,180,2.0,2.0,97,0.00,,,0.00,Rainwise IP-100,2013-08-12 06:47:00,
2013-08-12 02:52:00,61.6,60.0,29.25,SE,135,1.0,2.0,97,0.00,,,0.00,Rainwise IP-100,2013-08-12 06:52:00,
2013-08-12 02:57:00,61.6,60.0,29.25,SE,135,0.0,2.0,96,0.00,,,0.00,Rainwise IP-100,2013-08-12 06:57:00,
2013-08-12 03:02:00,61.6,60.0,29.25,SE,135,1.0,2.0,96,0.00,,,0.00,Rainwise IP-100,2013-08-12 07:02:00,
2013-08-12 03:07:00,61.6,60.0,29.25,SE,135,0.0,2.0,96,0.00,,,0.00,Rainwise IP-100,2013-08-12 07:07:00,
2013-08-12 03:12:00,61.6,60.0,29.25,SE,135,0.0,1.0,97,0.00,,,0.00,Rainwise IP-100,2013-08-12 07:12:00,
2013-08-12 03:17:00,61.5,60.0,29.25,SE,135,0.0,0.0,97,0.00,,,0.00,Rainwise IP-100,2013-08-12 07:17:00,
2013-08-12 03:22:00,61.5,60.0,29.25,SE,135,2.0,2.0,97,0.00,,,0.00,Rainwise IP-100,2013-08-12 07:22:00,
2013-08-12 03:27:00,61.5,60.0,29.25,SSE,157,2.0,2.0,97,0.00,,,0.00,Rainwise IP-100,2013-08-12 07:27:00,
2013-08-12 03:32:00,61.6,61.0,29.24,SE,135,1.0,2.0,98,0.00,,,0.00,Rainwise IP-100,2013-08-12 07:32:00,
2013-08-12 03:37:00,61.7,60.0,29.24,SE,135,2.0,2.0,97,0.00,,,0.00,Rainwise IP-100,2013-08-12 07:37:00,
2013-08-12 03:42:00,61.9,61.0,29.24,ESE,112,2.0,2.0,97,0.00,,,0.00,Rainwise IP-100,2013-08-12 07:42:00,
2013-08-12 03:47:00,62.1,61.0,29.24,ESE,112,0.0,2.0,96,0.00,,,0.00,Rainwise IP-100,2013-08-12 07:47:00,
2013-08-12 03:52:00,62.2,61.0,29.24,NE,45,0.0,2.0,96,0.00,,,0.00,Rainwise IP-100,2013-08-12 07:52:00,
2013-08-12 03:57:00,62.2,60.0,29.24,NE,45,0.0,1.0,95,0.00,,,0.00,Rainwise IP-100,2013-08-12 07:57:00,
2013-08-12 04:02:00,62.4,61.0,29.23,SSW,202,3.0,3.0,95,0.00,,,0.00,Rainwise IP-100,2013-08-12 08:02:00,
2013-08-12 04:07:00,62.7,60.0,29.24,SSW,202,0.0,4.0,93,0.00,,,0.00,Rainwise IP-100,2013-08-12 08:07:00,
2013-08-12 04:12:00,62.7,60.0,29.24,NE,45,2.0,2.0,93,0.00,,,0.00,Rainwise IP-100,2013-08-12 08:12:00,
2013-08-12 04:17:00,62.5,60.0,29.24,NE,45,2.0,2.0,93,0.00,,,0.00,Rainwise IP-100,2013-08-12 08:17:00,
2013-08-12 04:22:00,62.3,60.0,29.24,NE,45,2.0,2.0,94,0.00,,,0.00,Rainwise IP-100,2013-08-12 08:22:00,
2013-08-12 04:27:00,62.1,60.0,29.24,NE,45,0.0,2.0,94,0.00,,,0.00,Rainwise IP-100,2013-08-12 08:27:00,
2013-08-12 04:32:00,62.1,60.0,29.24,NE,45,2.0,2.0,95,0.00,,,0.00,Rainwise IP-100,2013-08-12 08:32:00,
2013-08-12 04:37:00,62.0,60.0,29.24,WNW,292,2.0,2.0,95,0.00,,,0.00,Rainwise IP-100,2013-08-12 08:37:00,
2013-08-12 04:42:00,61.9,60.0,29.24,West,270,0.0,2.0,95,0.00,,,0.00,Rainwise IP-100,2013-08-12 08:42:00,
2013-08-12 04:47:00,62.1,60.0,29.24,ESE,112,2.0,2.0,95,0.00,,,0.00,Rainwise IP-100,2013-08-12 08:47:00,
2013-08-12 04:52:00,62.3,60.0,29.24,East,90,0.0,2.0,95,0.00,,,0.00,Rainwise IP-100,2013-08-12 08:52:00,
2013-08-12 04:57:00,62.3,60.0,29.24,East,90,0.0,2.0,95,0.00,,,0.00,Rainwise IP-100,2013-08-12 08:57:00,
2013-08-12 05:02:00,62.4,61.0,29.24,WSW,247,1.0,2.0,94,0.00,,,0.00,Rainwise IP-100,2013-08-12 09:02:00,
2013-08-12 05:07:00,62.5,61.0,29.24,SSW,202,0.0,2.0,94,0.00,,,0.00,Rainwise IP-100,2013-08-12 09:07:00,
2013-08-12 05:12:00,62.5,61.0,29.24,South,180,0.0,2.0,94,0.00,,,0.00,Rainwise IP-100,2013-08-12 09:12:00,
2013-08-12 05:17:00,62.6,60.0,29.24,SE,135,2.0,2.0,93,0.00,,,0.00,Rainwise IP-100,2013-08-12 09:17:00,
2013-08-12 05:22:00,62.6,60.0,29.24,South,180,2.0,2.0,93,0.00,,,0.00,Rainwise IP-100,2013-08-12 09:22:00,
2013-08-12 05:27:00,62.6,60.0,29.24,SE,135,2.0,2.0,92,0.00,,,0.00,Rainwise IP-100,2013-08-12 09:27:00,
2013-08-12 05:32:00,62.6,60.0,29.24,ESE,112,1.0,2.0,92,0.00,,,0.00,Rainwise IP-100,2013-08-12 09:32:00,
2013-08-12 05:37:00,62.5,60.0,29.24,ESE,112,2.0,2.0,92,0.00,,,0.00,Rainwise IP-100,2013-08-12 09:37:00,
2013-08-12 05:42:00,62.1,60.0,29.24,SE,135,1.0,2.0,92,0.00,,,0.00,Rainwise IP-100,2013-08-12 09:42:00,
2013-08-12 05:47:00,61.9,60.0,29.24,SE,135,1.0,2.0,93,0.00,,,0.00,Rainwise IP-100,2013-08-12 09:47:00,
2013-08-12 05:52:00,61.7,59.0,29.24,SE,135,0.0,2.0,93,0.00,,,0.00,Rainwise IP-100,2013-08-12 09:52:00,
2013-08-12 05:57:00,61.4,60.0,29.24,SE,135,0.0,0.0,94,0.00,,,0.00,Rainwise IP-100,2013-08-12 09:57:00,
2013-08-12 06:02:00,60.9,59.0,29.24,SE,135,0.0,0.0,94,0.00,,,0.00,Rainwise IP-100,2013-08-12 10:02:00,
2013-08-12 06:07:00,60.6,59.0,29.23,SE,135,0.0,0.0,96,0.00,,,0.00,Rainwise IP-100,2013-08-12 10:07:00,
2013-08-12 06:12:00,60.4,59.0,29.24,SSE,157,2.0,2.0,96,0.00,,,0.00,Rainwise IP-100,2013-08-12 10:12:00,
2013-08-12 06:17:00,60.5,59.0,29.23,South,180,0.0,2.0,97,0.00,,,0.00,Rainwise IP-100,2013-08-12 10:17:00,
2013-08-12 06:22:00,60.4,59.0,29.23,South,180,0.0,2.0,97,0.00,,,0.00,Rainwise IP-100,2013-08-12 10:22:00,
2013-08-12 06:27:00,60.3,59.0,29.23,SSE,157,2.0,2.0,97,0.00,,,0.00,Rainwise IP-100,2013-08-12 10:27:00,
2013-08-12 06:32:00,59.9,59.0,29.23,SE,135,2.0,2.0,97,0.00,,,0.00,Rainwise IP-100,2013-08-12 10:32:00,
2013-08-12 06:35:00,59.6,58.0,29.23,SE,135,2.0,2.0,97,0.00,,,0.00,Rainwise IP-100,2013-08-12 10:35:00,
2013-08-12 06:36:00,59.6,58.0,29.23,SE,135,1.0,2.0,97,0.00,,,0.00,Rainwise IP-100,2013-08-12 10:36:00,
2013-08-12 06:41:00,59.3,58.0,29.23,SSE,157,2.0,2.0,98,0.00,,,0.00,Rainwise IP-100,2013-08-12 10:41:00,
2013-08-12 06:46:00,59.4,59.0,29.24,SSW,202,1.0,2.0,98,0.00,,,0.00,Rainwise IP-100,2013-08-12 10:46:00,
2013-08-12 06:51:00,59.6,59.0,29.24,SSW,202,0.0,2.0,98,0.00,,,0.00,Rainwise IP-100,2013-08-12 10:51:00,
2013-08-12 06:56:00,59.6,59.0,29.23,SE,135,2.0,2.0,98,0.00,,,0.00,Rainwise IP-100,2013-08-12 10:56:00,
2013-08-12 07:01:00,59.6,59.0,29.24,SE,135,2.0,2.0,98,0.00,,,0.00,Rainwise IP-100,2013-08-12 11:01:00,
2013-08-12 07:06:00,59.9,59.0,29.24,ESE,112,1.0,2.0,97,0.00,,,0.00,Rainwise IP-100,2013-08-12 11:06:00,
2013-08-12 07:11:00,60.2,59.0,29.24,ESE,112,1.0,2.0,96,0.00,,,0.00,Rainwise IP-100,2013-08-12 11:11:00,
2013-08-12 07:16:00,60.5,59.0,29.24,ESE,112,2.0,2.0,95,0.00,,,0.00,Rainwise IP-100,2013-08-12 11:16:00,
2013-08-12 07:21:00,60.8,59.0,29.24,SE,135,1.0,2.0,95,0.00,,,0.00,Rainwise IP-100,2013-08-12 11:21:00,
2013-08-12 07:26:00,61.2,59.0,29.25,ESE,112,1.0,2.0,94,0.00,,,0.00,Rainwise IP-100,2013-08-12 11:26:00,
2013-08-12 07:31:00,61.6,59.0,29.25,East,90,2.0,2.0,93,0.00,,,0.00,Rainwise IP-100,2013-08-12 11:31:00,
2013-08-12 07:36:00,61.8,59.0,29.25,SE,135,2.0,2.0,92,0.00,,,0.00,Rainwise IP-100,2013-08-12 11:36:00,
2013-08-12 07:41:00,62.1,59.0,29.25,SE,135,2.0,2.0,91,0.00,,,0.00,Rainwise IP-100,2013-08-12 11:41:00,
2013-08-12 07:46:00,62.4,60.0,29.25,SSE,157,1.0,3.0,92,0.00,,,0.00,Rainwise IP-100,2013-08-12 11:46:00,
2013-08-12 07:51:00,62.8,59.0,29.25,ESE,112,1.0,3.0,90,0.00,,,0.00,Rainwise IP-100,2013-08-12 11:51:00,
2013-08-12 07:56:00,62.9,59.0,29.25,SE,135,1.0,3.0,88,0.00,,,0.00,Rainwise IP-100,2013-08-12 11:56:00,
2013-08-12 08:01:00,62.9,59.0,29.25,SE,135,0.0,2.0,88,0.00,,,0.00,Rainwise IP-100,2013-08-12 12:01:00,
2013-08-12 08:06:00,63.2,59.0,29.25,SE,135,0.0,2.0,87,0.00,,,0.00,Rainwise IP-100,2013-08-12 12:06:00,
2013-08-12 08:11:00,63.6,60.0,29.25,SE,135,1.0,2.0,88,0.00,,,0.00,Rainwise IP-100,2013-08-12 12:11:00,
2013-08-12 08:16:00,63.9,60.0,29.25,SE,135,1.0,2.0,87,0.00,,,0.00,Rainwise IP-100,2013-08-12 12:16:00,
2013-08-12 08:21:00,64.7,60.0,29.25,SE,135,1.0,2.0,86,0.00,,,0.00,Rainwise IP-100,2013-08-12 12:21:00,
2013-08-12 08:26:00,65.3,60.0,29.25,ESE,112,2.0,3.0,84,0.00,,,0.00,Rainwise IP-100,2013-08-12 12:26:00,
2013-08-12 08:31:00,66.0,61.0,29.26,ESE,112,1.0,2.0,85,0.00,,,0.00,Rainwise IP-100,2013-08-12 12:31:00,
2013-08-12 08:36:00,66.6,61.0,29.26,SSE,157,2.0,3.0,84,0.00,,,0.00,Rainwise IP-100,2013-08-12 12:36:00,
2013-08-12 08:41:00,66.9,61.0,29.26,ESE,112,2.0,3.0,82,0.00,,,0.00,Rainwise IP-100,2013-08-12 12:41:00,
2013-08-12 08:46:00,67.7,61.0,29.26,SE,135,2.0,3.0,81,0.00,,,0.00,Rainwise IP-100,2013-08-12 12:46:00,
2013-08-12 08:51:00,68.2,61.0,29.27,SSE,157,4.0,4.0,78,0.00,,,0.00,Rainwise IP-100,2013-08-12 12:51:00,
2013-08-12 08:56:00,68.9,60.0,29.27,SE,135,2.0,5.0,74,0.00,,,0.00,Rainwise IP-100,2013-08-12 12:56:00,
2013-08-12 09:01:00,68.9,59.0,29.26,SSE,157,2.0,6.0,72,0.00,,,0.00,Rainwise IP-100,2013-08-12 13:01:00,
2013-08-12 09:06:00,69.6,60.0,29.27,SE,135,4.0,4.0,73,0.00,,,0.00,Rainwise IP-100,2013-08-12 13:06:00,
2013-08-12 09:11:00,69.9,61.0,29.27,SE,135,4.0,5.0,73,0.00,,,0.00,Rainwise IP-100,2013-08-12 13:11:00,
2013-08-12 09:16:00,70.4,61.0,29.27,SE,135,1.0,4.0,73,0.00,,,0.00,Rainwise IP-100,2013-08-12 13:16:00,
2013-08-12 09:21:00,71.1,60.0,29.27,SSE,157,2.0,4.0,70,0.00,,,0.00,Rainwise IP-100,2013-08-12 13:21:00,
2013-08-12 09:26:00,71.4,59.0,29.27,SE,135,1.0,6.0,65,0.00,,,0.00,Rainwise IP-100,2013-08-12 13:26:00,
2013-08-12 09:31:00,71.7,59.0,29.27,SE,135,2.0,2.0,66,0.00,,,0.00,Rainwise IP-100,2013-08-12 13:31:00,
2013-08-12 09:36:00,72.1,59.0,29.27,South,180,1.0,5.0,65,0.00,,,0.00,Rainwise IP-100,2013-08-12 13:36:00,
2013-08-12 09:41:00,72.3,60.0,29.27,North,360,1.0,2.0,65,0.00,,,0.00,Rainwise IP-100,2013-08-12 13:41:00,
2013-08-12 09:46:00,72.9,61.0,29.27,ENE,67,0.0,2.0,66,0.00,,,0.00,Rainwise IP-100,2013-08-12 13:46:00,
2013-08-12 09:51:00,73.8,62.0,29.27,SE,135,2.0,2.0,68,0.00,,,0.00,Rainwise IP-100,2013-08-12 13:51:00,
2013-08-12 09:56:00,73.9,62.0,29.27,SE,135,1.0,4.0,67,0.00,,,0.00,Rainwise IP-100,2013-08-12 13:56:00,
2013-08-12 10:01:00,74.3,62.0,29.27,NE,45,0.0,2.0,66,0.00,,,0.00,Rainwise IP-100,2013-08-12 14:01:00,
2013-08-12 10:06:00,75.1,61.0,29.27,North,360,0.0,3.0,62,0.00,,,0.00,Rainwise IP-100,2013-08-12 14:06:00,
2013-08-12 10:11:00,75.0,61.0,29.27,South,180,1.0,3.0,63,0.00,,,0.00,Rainwise IP-100,2013-08-12 14:11:00,
2013-08-12 10:16:00,75.6,61.0,29.28,North,360,1.0,2.0,61,0.00,,,0.00,Rainwise IP-100,2013-08-12 14:16:00,
2013-08-12 10:21:00,75.9,63.0,29.27,SE,135,0.0,2.0,65,0.00,,,0.00,Rainwise IP-100,2013-08-12 14:21:00,
2013-08-12 10:26:00,76.2,61.0,29.27,SE,135,2.0,4.0,59,0.00,,,0.00,Rainwise IP-100,2013-08-12 14:26:00,
2013-08-12 10:31:00,75.7,62.0,29.28,ESE,112,0.0,4.0,63,0.00,,,0.00,Rainwise IP-100,2013-08-12 14:31:00,
2013-08-12 10:36:00,75.8,61.0,29.27,SSE,157,2.0,2.0,61,0.00,,,0.00,Rainwise IP-100,2013-08-12 14:36:00,
2013-08-12 10:41:00,76.6,63.0,29.27,NNW,337,2.0,2.0,63,0.00,,,0.00,Rainwise IP-100,2013-08-12 14:41:00,
2013-08-12 10:46:00,77.2,63.0,29.27,South,180,1.0,2.0,62,0.00,,,0.00,Rainwise IP-100,2013-08-12 14:46:00,
2013-08-12 10:51:00,76.7,60.0,29.27,SE,135,1.0,2.0,57,0.00,,,0.00,Rainwise IP-100,2013-08-12 14:51:00,
2013-08-12 10:56:00,76.3,60.0,29.27,SE,135,2.0,2.0,57,0.00,,,0.00,Rainwise IP-100,2013-08-12 14:56:00,
2013-08-12 11:01:00,76.3,60.0,29.27,SSE,157,0.0,3.0,58,0.00,,,0.00,Rainwise IP-100,2013-08-12 15:01:00,
2013-08-12 11:06:00,75.9,62.0,29.27,ESE,112,1.0,4.0,62,0.00,,,0.00,Rainwise IP-100,2013-08-12 15:06:00,
2013-08-12 11:11:00,76.1,62.0,29.27,ESE,112,1.0,1.0,63,0.00,,,0.00,Rainwise IP-100,2013-08-12 15:11:00,
2013-08-12 11:16:00,76.4,60.0,29.27,SE,135,2.0,3.0,57,0.00,,,0.00,Rainwise IP-100,2013-08-12 15:16:00,
2013-08-12 11:21:00,75.7,62.0,29.27,North,360,0.0,2.0,63,0.00,,,0.00,Rainwise IP-100,2013-08-12 15:21:00,
2013-08-12 11:26:00,75.9,60.0,29.27,SE,135,1.0,2.0,58,0.00,,,0.00,Rainwise IP-100,2013-08-12 15:26:00,
2013-08-12 11:31:00,76.3,63.0,29.27,North,360,1.0,2.0,65,0.00,,,0.00,Rainwise IP-100,2013-08-12 15:31:00,
2013-08-12 11:36:00,77.2,62.0,29.27,North,360,0.0,2.0,59,0.00,,,0.00,Rainwise IP-100,2013-08-12 15:36:00,
2013-08-12 11:41:00,77.2,61.0,29.27,SE,135,2.0,3.0,57,0.00,,,0.00,Rainwise IP-100,2013-08-12 15:41:00,
2013-08-12 11:46:00,76.2,60.0,29.26,SW,225,0.0,2.0,57,0.00,,,0.00,Rainwise IP-100,2013-08-12 15:46:00,
2013-08-12 11:51:00,75.9,60.0,29.26,NW,315,0.0,2.0,58,0.00,,,0.00,Rainwise IP-100,2013-08-12 15:51:00,
2013-08-12 11:56:00,76.2,62.0,29.26,NW,315,0.0,3.0,61,0.00,,,0.00,Rainwise IP-100,2013-08-12 15:56:00,
2013-08-12 12:01:00,76.8,60.0,29.26,NNE,22,0.0,2.0,57,0.00,,,0.00,Rainwise IP-100,2013-08-12 16:01:00,
2013-08-12 12:06:00,77.1,60.0,29.26,SE,135,2.0,4.0,56,0.00,,,0.00,Rainwise IP-100,2013-08-12 16:06:00,
2013-08-12 12:11:00,77.2,60.0,29.26,SE,135,4.0,4.0,55,0.00,,,0.00,Rainwise IP-100,2013-08-12 16:11:00,
2013-08-12 12:16:00,76.2,59.0,29.26,South,180,2.0,5.0,55,0.00,,,0.00,Rainwise IP-100,2013-08-12 16:16:00,
2013-08-12 12:21:00,76.2,59.0,29.26,North,360,1.0,3.0,55,0.00,,,0.00,Rainwise IP-100,2013-08-12 16:21:00,
2013-08-12 12:26:00,75.9,59.0,29.26,ESE,112,3.0,4.0,55,0.00,,,0.00,Rainwise IP-100,2013-08-12 16:26:00,
2013-08-12 12:31:00,75.9,61.0,29.25,ENE,67,3.0,4.0,60,0.00,,,0.00,Rainwise IP-100,2013-08-12 16:31:00,
2013-08-12 12:36:00,76.0,59.0,29.25,SE,135,2.0,5.0,57,0.00,,,0.00,Rainwise IP-100,2013-08-12 16:36:00,
2013-08-12 12:41:00,76.8,60.0,29.25,SE,135,2.0,4.0,57,0.00,,,0.00,Rainwise IP-100,2013-08-12 16:41:00,
2013-08-12 12:46:00,76.7,61.0,29.25,ESE,112,1.0,4.0,58,0.00,,,0.00,Rainwise IP-100,2013-08-12 16:46:00,
2013-08-12 12:51:00,76.4,60.0,29.25,SE,135,1.0,4.0,57,0.00,,,0.00,Rainwise IP-100,2013-08-12 16:51:00,
2013-08-12 12:56:00,76.3,61.0,29.24,NE,45,0.0,4.0,60,0.00,,,0.00,Rainwise IP-100,2013-08-12 16:56:00,
2013-08-12 13:01:00,76.6,59.0,29.24,SE,135,2.0,3.0,55,0.00,,,0.00,Rainwise IP-100,2013-08-12 17:01:00,
2013-08-12 13:06:00,77.2,62.0,29.24,ESE,112,2.0,4.0,59,0.00,,,0.00,Rainwise IP-100,2013-08-12 17:06:00,
2013-08-12 13:11:00,76.8,59.0,29.24,SE,135,3.0,6.0,55,0.00,,,0.00,Rainwise IP-100,2013-08-12 17:11:00,
2013-08-12 13:16:00,76.9,61.0,29.24,East,90,1.0,4.0,59,0.00,,,0.00,Rainwise IP-100,2013-08-12 17:16:00,
2013-08-12 13:21:00,77.3,63.0,29.23,North,360,2.0,4.0,61,0.00,,,0.00,Rainwise IP-100,2013-08-12 17:21:00,
2013-08-12 13:26:00,77.6,61.0,29.23,NNW,337,1.0,2.0,57,0.00,,,0.00,Rainwise IP-100,2013-08-12 17:26:00,
2013-08-12 13:31:00,77.9,62.0,29.23,North,360,1.0,2.0,59,0.00,,,0.00,Rainwise IP-100,2013-08-12 17:31:00,
2013-08-12 13:36:00,77.9,60.0,29.23,North,360,4.0,4.0,54,0.00,,,0.00,Rainwise IP-100,2013-08-12 17:36:00,
2013-08-12 13:41:00,78.5,62.0,29.23,NNE,22,1.0,4.0,57,0.00,,,0.00,Rainwise IP-100,2013-08-12 17:41:00,
2013-08-12 13:46:00,78.6,62.0,29.23,ESE,112,2.0,4.0,58,0.00,,,0.00,Rainwise IP-100,2013-08-12 17:46:00,
2013-08-12 13:51:00,78.2,61.0,29.23,SE,135,4.0,6.0,56,0.00,,,0.00,Rainwise IP-100,2013-08-12 17:51:00,
2013-08-12 13:56:00,77.8,62.0,29.23,ESE,112,3.0,5.0,58,0.00,,,0.00,Rainwise IP-100,2013-08-12 17:56:00,
2013-08-12 14:01:00,77.5,60.0,29.23,SE,135,0.0,6.0,55,0.00,,,0.00,Rainwise IP-100,2013-08-12 18:01:00,
2013-08-12 14:06:00,77.7,60.0,29.23,NE,45,1.0,3.0,55,0.00,,,0.00,Rainwise IP-100,2013-08-12 18:06:00,
2013-08-12 14:11:00,78.2,60.0,29.23,SSW,202,0.0,3.0,53,0.00,,,0.00,Rainwise IP-100,2013-08-12 18:11:00,
2013-08-12 14:16:00,78.6,62.0,29.23,East,90,0.0,3.0,58,0.00,,,0.00,Rainwise IP-100,2013-08-12 18:16:00,
2013-08-12 14:21:00,78.5,61.0,29.23,SE,135,3.0,4.0,56,0.00,,,0.00,Rainwise IP-100,2013-08-12 18:21:00,
2013-08-12 14:26:00,78.5,61.0,29.23,NE,45,0.0,4.0,55,0.00,,,0.00,Rainwise IP-100,2013-08-12 18:26:00,
2013-08-12 14:31:00,78.5,60.0,29.23,NNW,337,1.0,3.0,53,0.00,,,0.00,Rainwise IP-100,2013-08-12 18:31:00,
2013-08-12 14:36:00,77.8,60.0,29.22,North,360,0.0,5.0,55,0.00,,,0.00,Rainwise IP-100,2013-08-12 18:36:00,
2013-08-12 14:41:00,77.7,62.0,29.22,SE,135,1.0,2.0,59,0.00,,,0.00,Rainwise IP-100,2013-08-12 18:41:00,
2013-08-12 14:46:00,77.5,60.0,29.22,North,360,2.0,2.0,55,0.00,,,0.00,Rainwise IP-100,2013-08-12 18:46:00,
2013-08-12 14:51:00,78.1,59.0,29.22,NE,45,0.0,4.0,52,0.00,,,0.00,Rainwise IP-100,2013-08-12 18:51:00,
2013-08-12 14:56:00,78.3,60.0,29.22,NNW,337,1.0,2.0,54,0.00,,,0.00,Rainwise IP-100,2013-08-12 18:56:00,
2013-08-12 15:01:00,78.6,61.0,29.21,North,360,0.0,3.0,56,0.00,,,0.00,Rainwise IP-100,2013-08-12 19:01:00,
2013-08-12 15:06:00,79.2,62.0,29.21,NNE,22,2.0,2.0,56,0.00,,,0.00,Rainwise IP-100,2013-08-12 19:06:00,
2013-08-12 15:11:00,79.4,60.0,29.21,SSE,157,1.0,3.0,51,0.00,,,0.00,Rainwise IP-100,2013-08-12 19:11:00,
2013-08-12 15:16:00,78.5,61.0,29.21,NE,45,1.0,4.0,56,0.00,,,0.00,Rainwise IP-100,2013-08-12 19:16:00,
2013-08-12 15:21:00,78.7,60.0,29.20,North,360,2.0,2.0,53,0.00,,,0.00,Rainwise IP-100,2013-08-12 19:21:00,
2013-08-12 15:26:00,78.8,61.0,29.21,ESE,112,1.0,2.0,55,0.00,,,0.00,Rainwise IP-100,2013-08-12 19:26:00,
2013-08-12 15:31:00,78.4,61.0,29.21,NE,45,0.0,2.0,55,0.00,,,0.00,Rainwise IP-100,2013-08-12 19:31:00,
2013-08-12 15:36:00,78.6,63.0,29.21,NE,45,0.0,0.0,59,0.00,,,0.00,Rainwise IP-100,2013-08-12 19:36:00,
2013-08-12 15:41:00,78.3,63.0,29.21,NE,45,0.0,0.0,60,0.00,,,0.00,Rainwise IP-100,2013-08-12 19:41:00,
2013-08-12 15:46:00,77.5,60.0,29.20,North,360,1.0,2.0,55,0.00,,,0.00,Rainwise IP-100,2013-08-12 19:46:00,
2013-08-12 15:51:00,76.6,62.0,29.20,North,360,1.0,2.0,62,0.00,,,0.00,Rainwise IP-100,2013-08-12 19:51:00,
2013-08-12 15:56:00,75.7,63.0,29.20,NNE,22,1.0,2.0,66,0.00,,,0.00,Rainwise IP-100,2013-08-12 19:56:00,
2013-08-12 16:01:00,75.4,63.0,29.20,NNE,22,0.0,2.0,65,0.00,,,0.00,Rainwise IP-100,2013-08-12 20:01:00,
2013-08-12 16:06:00,75.0,63.0,29.19,NNE,22,0.0,2.0,66,0.00,,,0.00,Rainwise IP-100,2013-08-12 20:06:00,
2013-08-12 16:11:00,74.9,62.0,29.19,North,360,2.0,2.0,65,0.00,,,0.00,Rainwise IP-100,2013-08-12 20:11:00,
2013-08-12 16:16:00,74.9,61.0,29.19,North,360,1.0,2.0,63,0.00,,,0.00,Rainwise IP-100,2013-08-12 20:16:00,
2013-08-12 16:21:00,75.1,63.0,29.19,North,360,1.0,2.0,66,0.00,,,0.00,Rainwise IP-100,2013-08-12 20:21:00,
2013-08-12 16:26:00,74.9,63.0,29.19,North,360,0.0,2.0,66,0.00,,,0.00,Rainwise IP-100,2013-08-12 20:26:00,
2013-08-12 16:31:00,74.7,63.0,29.19,North,360,0.0,1.0,67,0.00,,,0.00,Rainwise IP-100,2013-08-12 20:31:00,
2013-08-12 16:36:00,74.6,63.0,29.19,North,360,0.0,0.0,68,0.00,,,0.00,Rainwise IP-100,2013-08-12 20:36:00,
2013-08-12 16:41:00,74.5,65.0,29.19,North,360,0.0,0.0,72,0.00,,,0.00,Rainwise IP-100,2013-08-12 20:41:00,
2013-08-12 16:46:00,74.2,65.0,29.19,WSW,247,0.0,2.0,73,0.00,,,0.00,Rainwise IP-100,2013-08-12 20:46:00,
2013-08-12 16:51:00,74.2,63.0,29.19,South,180,1.0,2.0,68,0.00,,,0.00,Rainwise IP-100,2013-08-12 20:51:00,
2013-08-12 16:56:00,74.2,63.0,29.18,SE,135,1.0,2.0,67,0.00,,,0.00,Rainwise IP-100,2013-08-12 20:56:00,
2013-08-12 17:01:00,74.3,63.0,29.18,SSE,157,2.0,2.0,67,0.00,,,0.00,Rainwise IP-100,2013-08-12 21:01:00,
2013-08-12 17:06:00,74.2,63.0,29.17,SSE,157,0.0,2.0,68,0.00,,,0.00,Rainwise IP-100,2013-08-12 21:06:00,
2013-08-12 17:11:00,74.3,63.0,29.18,SSE,157,0.0,2.0,68,0.00,,,0.00,Rainwise IP-100,2013-08-12 21:11:00,
2013-08-12 17:16:00,74.4,62.0,29.18,SSE,157,0.0,0.0,66,0.00,,,0.00,Rainwise IP-100,2013-08-12 21:16:00,
2013-08-12 17:21:00,74.5,63.0,29.18,SSE,157,0.0,0.0,67,0.00,,,0.00,Rainwise IP-100,2013-08-12 21:21:00,
2013-08-12 17:26:00,74.8,65.0,29.18,SSE,157,0.0,0.0,71,0.00,,,0.00,Rainwise IP-100,2013-08-12 21:26:00,
2013-08-12 17:31:00,74.7,64.0,29.17,SSE,157,0.0,0.0,70,0.00,,,0.00,Rainwise IP-100,2013-08-12 21:31:00,
2013-08-12 17:36:00,74.6,64.0,29.17,SSE,157,0.0,0.0,70,0.00,,,0.00,Rainwise IP-100,2013-08-12 21:36:00,
2013-08-12 17:41:00,74.5,64.0,29.17,SSE,157,0.0,0.0,69,0.00,,,0.00,Rainwise IP-100,2013-08-12 21:41:00,
2013-08-12 17:46:00,74.3,63.0,29.17,SSE,157,0.0,1.0,69,0.00,,,0.00,Rainwise IP-100,2013-08-12 21:46:00,
2013-08-12 17:51:00,74.2,65.0,29.17,SSW,202,1.0,1.0,72,0.00,,,0.00,Rainwise IP-100,2013-08-12 21:51:00,
2013-08-12 17:56:00,73.9,63.0,29.17,SSE,157,1.0,2.0,69,0.00,,,0.00,Rainwise IP-100,2013-08-12 21:56:00,
2013-08-12 18:01:00,73.9,64.0,29.16,SSE,157,2.0,2.0,72,0.00,,,0.00,Rainwise IP-100,2013-08-12 22:01:00,
2013-08-12 18:06:00,74.0,66.0,29.16,SSE,157,1.0,2.0,75,0.00,,,0.00,Rainwise IP-100,2013-08-12 22:06:00,
2013-08-12 18:11:00,73.9,65.0,29.16,South,180,2.0,2.0,74,0.00,,,0.00,Rainwise IP-100,2013-08-12 22:11:00,
2013-08-12 18:16:00,73.9,64.0,29.16,SSW,202,1.0,2.0,72,0.00,,,0.00,Rainwise IP-100,2013-08-12 22:16:00,
2013-08-12 18:21:00,74.1,64.0,29.16,South,180,2.0,2.0,71,0.00,,,0.00,Rainwise IP-100,2013-08-12 22:21:00,
2013-08-12 18:26:00,74.2,65.0,29.15,South,180,1.0,2.0,73,0.00,,,0.00,Rainwise IP-100,2013-08-12 22:26:00,
2013-08-12 18:31:00,74.3,65.0,29.15,South,180,2.0,2.0,72,0.00,,,0.00,Rainwise IP-100,2013-08-12 22:31:00,
2013-08-12 18:36:00,74.3,64.0,29.15,SSE,157,2.0,2.0,71,0.00,,,0.00,Rainwise IP-100,2013-08-12 22:36:00,
2013-08-12 18:41:00,74.2,66.0,29.15,South,180,2.0,2.0,74,0.00,,,0.00,Rainwise IP-100,2013-08-12 22:41:00,
2013-08-12 18:46:00,74.1,66.0,29.15,SSE,157,1.0,2.0,75,0.00,,,0.00,Rainwise IP-100,2013-08-12 22:46:00,
2013-08-12 18:51:00,73.8,64.0,29.15,South,180,2.0,2.0,73,0.00,,,0.00,Rainwise IP-100,2013-08-12 22:51:00,
2013-08-12 18:56:00,73.7,65.0,29.15,South,180,2.0,2.0,74,0.00,,,0.00,Rainwise IP-100,2013-08-12 22:56:00,
2013-08-12 19:01:00,73.4,65.0,29.15,South,180,2.0,2.0,75,0.00,,,0.00,Rainwise IP-100,2013-08-12 23:01:00,
2013-08-12 19:06:00,73.2,65.0,29.15,SW,225,2.0,2.0,76,0.00,,,0.00,Rainwise IP-100,2013-08-12 23:06:00,
2013-08-12 19:11:00,72.9,65.0,29.15,WSW,247,2.0,2.0,77,0.00,,,0.00,Rainwise IP-100,2013-08-12 23:11:00,
2013-08-12 19:16:00,72.9,66.0,29.15,SSW,202,1.0,2.0,78,0.00,,,0.00,Rainwise IP-100,2013-08-12 23:16:00,
2013-08-12 19:21:00,73.1,65.0,29.15,SW,225,1.0,2.0,76,0.00,,,0.00,Rainwise IP-100,2013-08-12 23:21:00,
2013-08-12 19:26:00,73.3,64.0,29.15,SSW,202,2.0,4.0,74,0.00,,,0.00,Rainwise IP-100,2013-08-12 23:26:00,
2013-08-12 19:31:00,73.4,64.0,29.15,WSW,247,1.0,3.0,73,0.00,,,0.00,Rainwise IP-100,2013-08-12 23:31:00,
2013-08-12 19:36:00,73.2,64.0,29.15,SW,225,1.0,4.0,73,0.00,,,0.00,Rainwise IP-100,2013-08-12 23:36:00,
2013-08-12 19:42:00,72.9,65.0,29.15,SW,225,2.0,3.0,75,0.00,,,0.00,Rainwise IP-100,2013-08-12 23:42:00,
2013-08-12 19:47:00,72.6,65.0,29.15,SW,225,2.0,2.0,76,0.00,,,0.00,Rainwise IP-100,2013-08-12 23:47:00,
2013-08-12 19:52:00,72.1,64.0,29.15,WSW,247,2.0,2.0,76,0.00,,,0.00,Rainwise IP-100,2013-08-12 23:52:00,
2013-08-12 19:57:00,71.7,64.0,29.15,WSW,247,2.0,3.0,77,0.00,,,0.00,Rainwise IP-100,2013-08-12 23:57:00,
2013-08-12 20:02:00,71.3,64.0,29.15,SW,225,3.0,4.0,78,0.00,,,0.00,Rainwise IP-100,2013-08-13 00:02:00,
2013-08-12 20:07:00,70.9,63.0,29.15,SW,225,1.0,3.0,77,0.00,,,0.00,Rainwise IP-100,2013-08-13 00:07:00,
2013-08-12 20:12:00,70.8,63.0,29.14,SW,225,1.0,2.0,77,0.00,,,0.00,Rainwise IP-100,2013-08-13 00:12:00,
2013-08-12 20:17:00,70.4,63.0,29.14,South,180,2.0,3.0,79,0.00,,,0.00,Rainwise IP-100,2013-08-13 00:17:00,
2013-08-12 20:22:00,70.1,64.0,29.14,South,180,2.0,2.0,81,0.00,,,0.00,Rainwise IP-100,2013-08-13 00:22:00,
2013-08-12 20:27:00,69.4,63.0,29.14,SSW,202,2.0,2.0,82,0.00,,,0.00,Rainwise IP-100,2013-08-13 00:27:00,
2013-08-12 20:32:00,69.1,63.0,29.13,South,180,0.0,3.0,81,0.00,,,0.00,Rainwise IP-100,2013-08-13 00:32:00,
2013-08-12 20:37:00,68.9,63.0,29.13,South,180,2.0,2.0,82,0.00,,,0.00,Rainwise IP-100,2013-08-13 00:37:00,
2013-08-12 20:42:00,68.6,63.0,29.12,SW,225,2.0,4.0,83,0.00,,,0.00,Rainwise IP-100,2013-08-13 00:42:00,
2013-08-12 20:47:00,68.6,62.0,29.12,South,180,2.0,3.0,82,0.00,,,0.00,Rainwise IP-100,2013-08-13 00:47:00,
2013-08-12 20:52:00,68.5,62.0,29.12,SW,225,0.0,4.0,82,0.00,,,0.00,Rainwise IP-100,2013-08-13 00:52:00,
2013-08-12 20:57:00,68.4,62.0,29.12,SSE,157,1.0,2.0,82,0.00,,,0.00,Rainwise IP-100,2013-08-13 00:57:00,
2013-08-12 21:02:00,68.3,62.0,29.13,SSW,202,1.0,3.0,82,0.00,,,0.00,Rainwise IP-100,2013-08-13 01:02:00,
2013-08-12 21:07:00,68.1,62.0,29.12,South,180,2.0,2.0,82,0.00,,,0.00,Rainwise IP-100,2013-08-13 01:07:00,
2013-08-12 21:12:00,68.1,62.0,29.13,South,180,1.0,3.0,82,0.00,,,0.00,Rainwise IP-100,2013-08-13 01:12:00,
2013-08-12 21:17:00,67.9,62.0,29.13,South,180,1.0,2.0,83,0.00,,,0.00,Rainwise IP-100,2013-08-13 01:17:00,
2013-08-12 21:22:00,67.8,62.0,29.13,South,180,0.0,2.0,83,0.00,,,0.00,Rainwise IP-100,2013-08-13 01:22:00,
2013-08-12 21:27:00,67.6,62.0,29.13,SSW,202,2.0,2.0,84,0.00,,,0.00,Rainwise IP-100,2013-08-13 01:27:00,
2013-08-12 21:32:00,67.4,62.0,29.13,SSE,157,2.0,3.0,84,0.00,,,0.00,Rainwise IP-100,2013-08-13 01:32:00,
2013-08-12 21:37:00,67.3,62.0,29.13,SSW,202,1.0,6.0,85,0.00,,,0.00,Rainwise IP-100,2013-08-13 01:37:00,
2013-08-12 21:42:00,67.4,63.0,29.13,SSW,202,2.0,4.0,85,0.00,,,0.00,Rainwise IP-100,2013-08-13 01:42:00,
2013-08-12 21:47:00,67.4,63.0,29.13,SSW,202,2.0,4.0,85,0.00,,,0.00,Rainwise IP-100,2013-08-13 01:47:00,
2013-08-12 21:52:00,67.3,63.0,29.13,SSE,157,4.0,4.0,86,0.00,,,0.00,Rainwise IP-100,2013-08-13 01:52:00,
2013-08-12 21:57:00,67.4,63.0,29.13,South,180,3.0,6.0,86,0.00,,,0.00,Rainwise IP-100,2013-08-13 01:57:00,
2013-08-12 22:02:00,67.6,63.0,29.13,South,180,1.0,6.0,85,0.00,,,0.00,Rainwise IP-100,2013-08-13 02:02:00,
2013-08-12 22:07:00,67.6,63.0,29.13,South,180,4.0,5.0,85,0.00,,,0.00,Rainwise IP-100,2013-08-13 02:07:00,
2013-08-12 22:12:00,67.5,63.0,29.13,SSE,157,2.0,5.0,86,0.00,,,0.00,Rainwise IP-100,2013-08-13 02:12:00,
2013-08-12 22:17:00,67.5,63.0,29.13,SSE,157,3.0,7.0,86,0.00,,,0.00,Rainwise IP-100,2013-08-13 02:17:00,
2013-08-12 22:22:00,67.4,63.0,29.12,SSE,157,3.0,6.0,86,0.00,,,0.00,Rainwise IP-100,2013-08-13 02:22:00,
2013-08-12 22:27:00,67.6,63.0,29.12,SSW,202,4.0,6.0,86,0.00,,,0.00,Rainwise IP-100,2013-08-13 02:27:00,
2013-08-12 22:32:00,67.7,63.0,29.12,SSE,157,4.0,7.0,85,0.00,,,0.00,Rainwise IP-100,2013-08-13 02:32:00,
2013-08-12 22:37:00,67.9,63.0,29.11,South,180,1.0,10.0,84,0.00,,,0.00,Rainwise IP-100,2013-08-13 02:37:00,
2013-08-12 22:42:00,68.3,62.0,29.11,SSE,157,3.0,7.0,83,0.00,,,0.00,Rainwise IP-100,2013-08-13 02:42:00,
2013-08-12 22:47:00,68.4,62.0,29.11,SSE,157,4.0,8.0,82,0.00,,,0.00,Rainwise IP-100,2013-08-13 02:47:00,
2013-08-12 22:52:00,68.6,62.0,29.11,South,180,4.0,9.0,82,0.00,,,0.00,Rainwise IP-100,2013-08-13 02:52:00,
2013-08-12 22:57:00,68.6,62.0,29.12,South,180,6.0,8.0,82,0.00,,,0.00,Rainwise IP-100,2013-08-13 02:57:00,
2013-08-12 23:02:00,68.7,62.0,29.12,South,180,6.0,7.0,81,0.00,,,0.00,Rainwise IP-100,2013-08-13 03:02:00,
2013-08-12 23:07:00,68.8,62.0,29.12,South,180,6.0,9.0,81,0.00,,,0.00,Rainwise IP-100,2013-08-13 03:07:00,
2013-08-12 23:12:00,68.9,62.0,29.11,SSE,157,4.0,9.0,80,0.00,,,0.00,Rainwise IP-100,2013-08-13 03:12:00,
2013-08-12 23:17:00,68.9,62.0,29.11,SSW,202,4.0,7.0,80,0.00,,,0.00,Rainwise IP-100,2013-08-13 03:17:00,
2013-08-12 23:22:00,68.8,62.0,29.11,SSE,157,4.0,6.0,80,0.00,,,0.00,Rainwise IP-100,2013-08-13 03:22:00,
2013-08-12 23:27:00,68.8,62.0,29.11,SSW,202,4.0,8.0,80,0.00,,,0.00,Rainwise IP-100,2013-08-13 03:27:00,
2013-08-12 23:32:00,68.8,62.0,29.11,SSE,157,4.0,7.0,80,0.00,,,0.00,Rainwise IP-100,2013-08-13 03:32:00,
2013-08-12 23:37:00,68.9,62.0,29.11,South,180,4.0,8.0,80,0.00,,,0.00,Rainwise IP-100,2013-08-13 03:37:00,
2013-08-12 23:42:00,68.9,62.0,29.11,South,180,1.0,7.0,80,0.00,,,0.00,Rainwise IP-100,2013-08-13 03:42:00,
2013-08-12 23:47:00,68.9,62.0,29.11,SSE,157,6.0,9.0,80,0.00,,,0.00,Rainwise IP-100,2013-08-13 03:47:00,
2013-08-12 23:52:00,68.9,62.0,29.10,SW,225,3.0,9.0,80,0.00,,,0.00,Rainwise IP-100,2013-08-13 03:52:00,
2013-08-12 23:57:00,69.0,62.0,29.10,South,180,2.0,9.0,79,0.00,,,0.00,Rainwise IP-100,2013-08-13 03:57:00,